GFSNE_prec_radar_000.txt.gz
Reflectivity
5 10 -18 -20 -20 -20 -18 1 15 7 -20 -20 -20 -20 -19 23 31 18 31 -9 -10 -20 -20 -20 -20 -20 -20 -20 -20 -20 -20 -20 -20 -20 -20 -20 -20 -20
9 -8 -15 6 5 -0 12 10 10 5 -20 -20 -20 -20 -20 6 29 32 28 10 -20 -20 -20 -20 -20 -20 -20 -20 -20 -20 -20 -20 -20 -20 -20 -20 -20 -20
-20 -13 -14 -11 19 8 10 -20 -15 -7 3 -20 -20 -20 -20 5 4 13 21 15 -19 -20 -20 -20 -20 -20 -20 -20 -20 -20 -20 -20 -20 -20 -20 -20 -20 -20
13 10 12 -12 7 6 -6 10 7 -20 -7 -20 -20 -20 -20 -20 -20 -3 15 14 -3 -12 -20 -20 -20 -20 -20 -20 -20 -20 -20 -20 -20 -20 -20 -20 -20 -20
-20 -20 -14 1 -16 -20 -20 -20 -20 -20 -20 -20 -20 -20 -20 -20 -20 -20 -4 -10 -20 -15 -20 -20 -20 -20 -20 -20 -20 -20 -20 -20 -20 -20 -20 -20 -20 -20
-20 -20 -20 -20 -12 15 -5 -19 -20 -20 -20 -20 -20 -20 -20 -20 -20 -20 -20 -20 -20 -20 -20 -20 -20 -20 -20 -20 -20 -20 -20 -20 -20 -20 -20 -20 -20 -20
-20 -20 -20 -20 -20 -20 -20 -4 -20 -20 -20 -20 -20 -20 -20 -20 -19 -10 1 3 -20 -20 -20 -20 -20 -20 -20 -20 -20 -20 -20 -20 -20 -20 -20 -20 -20 -20
-20 -20 -20 -20 -20 -20 4 -20 -20 -20 -20 -20 -20 -20 -20 -20 -20 -20 -20 -20 -20 -20 -20 -20 -20 -20 -20 -10 -20 -20 -20 -20 -20 -20 -20 -20 -20 -20
-20 -20 -20 -13 -7 -11 10 -10 -20 -20 -20 -20 -20 -20 -20 -20 -20 -20 -20 -20 -20 -20 -20 -20 -20 -20 -20 -20 -20 -20 -20 -20 -20 -20 -20 -20 -20 -20
-20 -20 -20 -20 -20 -20 -20 -20 -20 -20 -20 -20 -10 -20 -20 -20 -20 -13 -6 -20 -20 -20 -20 -20 -20 -20 -20 -20 -20 -20 -20 -20 -20 -20 -20 -20 -20 -20
-20 -20 8 0 -20 -15 -11 -20 -20 -20 -20 -1 -17 -1 4 -12 -16 -20 -20 -17 -15 -11 -20 -20 -20 -20 -20 -20 -20 -20 -20 -20 -20 -20 -20 -20 -20 -20
-19 -20 -20 10 -6 -18 -13 7 10 8 -11 -20 -20 -20 -20 -20 -17 4 -9 -20 -20 -20 -20 -7 -20 -20 -19 -20 -20 -20 -20 -20 -20 -20 -20 -20 -20 -20
-20 -18 -15 20 8 -20 -20 -20 -20 -13 -20 -20 -20 -20 -20 -20 -20 -20 3 8 -20 -20 -20 4 5 -20 -10 -13 -20 -20 -20 -20 -20 -20 -20 -20 -20 -20
2 8 -10 3 -7 -10 -14 -4 9 -20 -20 -20 -20 -20 -5 -20 -20 -20 -15 11 5 -16 -20 8 13 -20 -20 -20 -20 -20 -20 -10 5 -5 -20 -15 -20 -20
5 3 2 1 0 -2 9 5 -15 -20 12 10 -17 -3 5 -16 -18 -18 -18 -20 -18 -8 8 -2 6 -20 -20 -20 -13 -20 -20 -20 -20 -20 -8 -20 -20 -20
-20 -16 8 -1 -19 1 9 8 7 9 -19 -14 1 -17 -1 -20 -2 -12 -10 -13 -20 -20 -20 -20 -20 -8 -18 0 6 -20 -20 -20 -20 -13 29 2 1 -17
-17 1 -4 -20 -13 6 -9 3 5 -5 3 -20 -19 1 1 -8 -20 -20 -20 -20 -5 -10 -20 -20 -20 -20 -20 -11 6 -20 -20 -20 -20 -20 -11 -10 -20 -20
1 -1 -20 -20 -15 -7 7 1 -20 7 -19 -20 -9 -5 -11 -19 -20 -20 -6 3 -20 -20 3 -16 -20 -11 -20 -20 -16 -20 -20 -20 -20 -20 -20 -7 -14 -20
-0 -0 4 -20 -20 -11 -19 -17 -20 7 -2 -20 3 -20 -19 -20 -18 -20 -20 -20 -20 -20 -20 13 -7 -20 -20 -20 -20 -9 -20 -20 -20 -20 -20 -20 -20 12
-20 -20 -13 -19 -20 -20 -20 -14 -20 -1 -20 -20 -8 -20 -20 -20 1 -16 -20 -20 -20 -19 9 -20 -20 -20 -19 -5 -9 -20 -15 -12 -20 -20 -20 -20 -20 1
-20 -20 -20 -20 -20 -20 -20 -20 -20 2 -16 -20 -20 -20 -20 1 -20 -16 -15 -20 -20 -20 -20 -20 -20 -20 -20 -20 -16 -14 -20 -20 -20 -20 -20 -20 7 -18
-20 -20 -20 -20 -20 -20 -20 -20 -20 -20 -20 -20 -20 -20 -20 -13 -20 2 -14 1 -20 -20 -11 -16 -3 -20 -9 -20 -18 -5 -20 -20 -20 -20 -20 -20 -20 -16
-20 -20 -20 -20 -20 -20 -20 -20 -20 -20 -20 -20 -20 -20 -20 -20 -20 6 -20 -3 -20 -20 -20 -19 -20 -20 -2 -20 -20 -20 -20 -18 -20 -20 -20 -20 -20 -20

GFSNE_prec_radar_003.txt.gz
Reflectivity
-20 -19 -20 -20 -20 -19 -20 15 26 -1 -20 -20 -20 -20 -20 -18 3 15 22 12 32 36 13 -17 3 -7 -20 -1 -20 -20 -20 -20 -20 -20 -20 -20 -20 -20
-20 -20 9 -5 5 23 32 34 15 -1 -14 -20 -20 -20 -20 4 7 -5 -0 18 10 13 16 5 -20 -20 -20 -20 -20 -20 -20 -20 -20 -20 -20 -20 -20 -20
-20 -11 -15 -14 -13 3 -18 -11 17 11 4 -20 -20 -20 -20 -20 -19 8 10 15 20 12 8 -20 -20 -20 -20 -20 -20 -20 -20 -20 -20 -20 -20 -20 -20 -20
-20 -20 -20 -20 -20 -20 -2 9 5 3 2 -20 -20 -20 -20 -20 -20 -20 5 13 24 19 14 -20 -20 -20 -20 -20 -20 -20 -20 -20 -20 -20 -20 -20 -20 -20
-20 -20 -20 -20 -20 -20 -20 -20 -20 -20 -20 -20 -20 -20 -20 -20 -20 -20 -12 8 22 20 0 -20 -20 -20 -20 -20 -20 -20 -20 -20 -20 -20 -20 -20 -20 -20
-20 -20 -20 -20 -20 -20 -20 -20 -20 -20 -20 -20 -20 -20 -20 -20 -20 -20 -20 -20 -19 -8 -10 -20 -20 -20 -20 -20 -20 -20 -20 -20 -20 -20 -20 -20 -20 -20
-20 -20 -20 -20 -20 -20 -4 -20 -20 -20 -20 -20 -20 -20 -20 -20 -20 -20 -20 -20 -20 -20 -20 -20 -20 -20 -20 -20 -20 -20 -20 -20 -20 -20 -20 -20 -20 -20
-20 -20 -20 -20 -3 -20 -20 -20 -16 -20 -20 -20 -20 -20 -20 -20 -20 -20 -20 -20 -20 -20 -20 -20 -20 -20 -20 -20 -20 -20 -20 -20 -20 -20 -20 -20 -20 -20
-20 -20 -20 -20 -20 -20 -20 -20 -20 -20 -20 -20 -20 -20 -20 -20 -20 -20 -20 -20 -20 -20 -20 -20 -20 -20 -20 -20 -20 -20 -20 -20 -20 -20 -20 -20 -20 -20
-20 -20 -20 -20 -20 -6 -20 -20 -20 -20 -20 -20 -20 -20 -20 -20 -20 -20 -20 -10 -20 -20 -20 -20 -20 -20 -20 -20 -20 -20 -20 -20 -20 -20 -20 -20 -20 -20
-20 -20 -20 -18 -20 3 -18 -11 -20 -20 -20 -20 -16 3 -4 0 14 13 -15 -20 -20 -20 -20 -20 -20 -20 -20 -20 -20 -20 -20 -20 -20 -20 -20 -20 -20 -20
-20 -20 -20 -20 20 11 -12 -20 -20 -20 -20 -20 -20 -20 -20 -20 -20 -12 -19 5 -17 -19 -20 -20 -20 -20 -20 -20 -20 -20 -20 -20 -20 -20 -20 -20 -20 -20
-15 -12 -14 -2 3 8 9 -8 -20 -11 -1 -20 -20 -20 -20 -20 -20 -20 -20 -20 -13 -15 -7 3 -20 -20 -20 -20 -20 -20 -20 -20 -20 -20 -20 -20 -20 -20
-1 0 -20 15 -4 -4 -4 15 2 -12 -20 -20 -20 -20 -20 -20 -20 -17 -3 -20 -20 -17 -17 -15 0 -20 -20 -20 -20 -20 -20 -20 -20 -20 -20 -20 -20 -20
-19 -16 10 -5 -4 -20 10 6 -20 -4 1 -16 -20 -20 -11 -19 -18 -20 -20 -20 -20 -19 -20 -17 12 -3 -19 -20 -20 -20 -20 -20 -20 -20 -20 -20 -20 -19
-20 -20 -11 -20 -20 4 -20 -18 -14 -20 -20 -8 -20 -20 -20 -20 -20 -20 -20 -20 -17 -20 -20 -20 -20 -6 4 -9 7 -20 -20 -20 -20 -20 -20 -20 -20 -20
-20 -20 -20 -20 -20 -16 -14 -20 -20 -20 -20 -20 -20 -20 -20 -20 -20 -20 -17 -20 -19 -20 -20 -20 -8 -20 -20 -20 -20 -20 -20 -20 -20 -20 -20 -20 -20 -20
-20 -20 -10 -20 -20 -20 -20 -20 -20 -1 -20 -20 -20 -20 -20 -20 -20 -20 -20 -20 -20 -20 -20 -20 -20 -20 -19 -20 -20 -20 -20 -20 -20 -20 -20 -7 -20 -20
-20 -20 -20 -20 -20 -20 -20 -20 -20 -1 -20 -20 -20 -20 -20 -20 -20 -20 -20 -20 -20 -19 -2 -9 10 -20 -20 -20 -20 -20 -3 -20 -20 -20 -20 -11 -10 -20
-20 -20 -20 -20 -20 -20 -20 -20 -20 -20 -20 -20 -20 -20 -20 -20 -20 -20 -20 -20 -20 -20 -20 -20 -20 -20 -20 -20 -20 -20 -20 -20 -20 -20 -20 -20 -20 -13
-20 -20 -20 -20 -20 -20 -20 -20 -20 -20 -20 -20 -20 -20 -20 -20 -20 -20 -20 -20 -20 -20 -20 -20 -20 -20 -20 -20 -16 -20 -20 -20 -20 -20 -20 -20 -20 -20
-20 -20 -20 -20 -20 -20 -20 -20 -20 -20 -20 -20 -20 -20 -20 -20 -19 -19 -20 -20 -20 -20 -20 -20 -20 -20 -20 -20 -20 -20 -20 -20 -20 -20 -20 -20 -20 -20
-20 -20 -20 -20 -20 -20 -20 -20 -20 -20 -20 -20 -20 -20 -20 -20 -20 -20 -20 -20 -20 -20 -20 -20 -20 -20 -20 -20 -20 -20 -20 -20 -20 -20 -20 -20 -20 -20

GFSNE_prec_radar_006.txt.gz
Reflectivity
-20 -20 -20 -20 -20 15 12 -1 32 23 6 -20 -20 -20 -20 -20 -20 -20 -20 7 28 9 25 28 39 34 26 -16 -20 -20 -20 -20 -11 12 -20 -20 -20 -20
-20 -20 -20 -20 -20 -20 -12 -3 -9 26 20 -19 -20 -20 -20 -20 -20 -20 -20 -20 -17 27 20 5 10 -6 11 29 25 -6 -12 -20 -20 -2 -20 -20 -20 -20
-20 -20 -20 -20 -20 -20 -20 -20 -20 16 19 -19 8 -20 -20 -20 -20 -20 -20 -20 -12 29 4 20 -9 3 16 14 6 13 -10 -20 -20 -20 -20 -20 -20 -20
-20 -20 -20 -20 -20 -20 -20 -20 -20 -20 6 -20 -19 -1 -20 -20 -20 -20 -20 -20 -1 17 16 27 23 11 4 12 12 -3 -20 -20 -20 -20 -20 -20 -20 -20
-20 -20 -20 -20 -20 -20 -20 -20 -20 -20 -20 -18 -20 -20 -19 -20 -20 -20 -20 -20 -20 14 26 31 17 -2 8 -20 -20 -15 -20 -20 -20 -20 -20 -20 -20 -20
-20 -20 -20 -20 -20 -20 -20 -18 -20 -20 -20 -20 -20 -20 -20 -20 -20 -20 -20 -20 -20 -20 3 17 -7 8 -18 -20 -20 -20 -20 -20 -20 -20 -20 -20 -20 -20
-20 -20 -20 -20 -20 -13 -1 2 -20 -19 -20 -20 -20 -20 -20 -20 -20 -20 -20 -20 -20 -20 -20 -6 -14 -20 -20 -20 -20 -20 -20 -20 -20 -20 -20 -20 -20 -20
-20 -20 -20 -20 -20 -20 -20 1 2 -20 -20 -10 -18 -20 -20 -20 -20 -20 -20 -20 -20 -20 -20 -20 -20 -20 -20 -20 -20 -20 -3 -20 -20 -20 -20 -20 -20 -20
-20 -20 -20 -20 -20 -20 -20 -20 -20 -20 7 -8 -20 -20 -20 -20 -20 -20 -20 -20 -20 -20 -20 -20 -20 -20 -20 -20 -20 -20 -20 -20 -20 -20 -20 -20 -20 -20
-20 -20 -20 -20 -20 -20 -14 9 -20 -20 -20 -20 -20 -20 -20 -20 -20 -20 -20 -20 -20 -20 -20 -20 -20 -20 -20 -20 -20 -20 -20 -20 -20 -20 -20 -20 -20 -20
-20 -20 -12 -20 -20 14 13 -20 -20 -20 -20 -17 11 1 7 7 -14 5 -12 4 -20 -20 -20 -20 -20 -20 -20 -20 -20 -20 -20 -20 -20 -20 -20 -20 -20 -20
-20 -20 -12 3 -2 12 15 7 -18 -20 -20 -20 -20 -20 -20 -20 -20 -20 -20 -20 -9 -20 -20 -20 -20 -20 -20 -20 -20 -20 -20 -20 -20 -20 -20 -20 -20 -20
-20 -13 -20 -11 4 0 3 -16 1 -7 -9 4 -20 -20 -20 -20 -20 -20 -20 -20 -20 -20 -20 -20 -20 -20 -20 -20 -20 -20 -20 -20 -20 -20 -20 -20 -20 -20
-11 -16 -20 4 8 7 2 8 -2 -20 -20 -20 -20 -20 -20 -20 -20 -20 -20 -20 -20 -20 -20 -17 -20 -20 -20 -20 -20 -20 -20 -20 -20 -20 -20 -20 -20 -20
-7 -2 -7 -5 -18 -11 1 5 -20 -20 -20 -20 -20 -19 -17 -20 -20 -20 -20 -20 -20 -20 -20 -20 -6 -20 -20 -20 -20 -20 -20 -20 -20 -20 -20 -20 -20 -20
-20 -20 -20 -20 -20 -15 -20 -20 -20 -20 -20 -20 -20 -20 -20 -20 -20 -20 -20 -20 -20 -20 -20 -20 -20 -20 -8 -20 -20 -20 -20 -20 -20 -20 -20 -20 -20 -20
-20 -20 -20 -20 -20 -20 -20 -20 -20 -20 -20 -20 -20 -20 -20 -20 -20 -19 -20 -20 -20 -20 -20 -20 -20 -20 -20 -19 -16 -20 -20 -20 -20 -20 -20 -20 -20 -20
-20 -20 -20 -20 -20 -20 -20 -20 -20 -20 -20 -20 -20 -20 -20 -20 -20 -20 -20 -20 -20 -20 -20 -20 -20 -20 -20 -20 -20 -20 -20 -20 -20 -20 -20 -20 -20 -20
-20 -20 -20 -20 -20 -20 -20 -20 -20 -20 -20 -20 -20 -20 -20 -20 -20 -20 -20 -20 -20 -20 -20 -20 -20 -20 -20 -20 -20 9 -19 -20 -20 -20 -20 -20 -20 -20
-20 -20 -20 -20 -20 -20 -20 -20 -20 -20 -20 -20 -20 -20 -20 -20 -20 -20 -20 -20 -20 -20 -20 -20 -20 -20 -20 -20 -20 -20 -20 -20 -20 -20 -20 -20 -20 -20
-20 -20 -20 -20 -20 -20 -20 -20 -20 -20 -20 -20 -20 -20 -20 -20 -20 -20 -20 -20 -20 -20 -20 -20 -20 -20 -20 -20 -20 -20 -20 -20 -20 -20 -20 -20 -20 -20
-20 -20 -20 -20 -20 -20 -20 -20 -20 -20 -20 -20 -20 -20 -20 -20 -20 -20 -20 -20 -20 -20 -20 -20 -20 -20 -20 -20 -20 -20 -20 -20 -20 -20 -20 -20 -20 -20
-20 -20 -20 -20 -20 -20 -20 -20 -20 -20 -20 -20 -20 -20 -20 -20 -20 -20 -20 -20 -20 -20 -20 -20 -20 -20 -20 -20 -20 -20 -20 -20 -20 -20 -20 -20 -20 -20

GFSNE_prec_radar_009.txt.gz
Reflectivity
-20 -20 -20 -20 -20 -20 -20 -20 10 2 -20 -20 -20 -20 -20 0 -19 -20 -20 -20 -20 -20 -20 18 9 -18 -3 37 28 -6 -20 -20 -18 -20 -20 -20 -20 -20
-20 -20 -20 -20 -20 -20 -20 -20 -20 -3 0 -8 -20 -20 -20 -2 13 -20 -20 -20 -20 -20 -20 14 6 29 12 7 22 -12 -18 -20 -20 -20 -20 -0 -13 -20
-20 -20 -20 -20 -20 -20 -20 -20 -20 -20 -20 -20 -19 -20 -20 -5 12 -4 -20 -20 -20 -20 -20 -14 5 26 19 21 16 2 27 -2 -20 -20 -20 -18 -20 -20
-20 -20 -20 -20 -20 -20 -20 -20 -20 -20 -20 -20 -20 -20 -20 -20 4 12 -17 -20 -20 -20 -20 -20 32 21 26 9 -20 -4 11 16 20 -15 -20 -20 -20 -20
-20 -20 -20 -20 -20 -20 -20 -20 -20 -20 -20 -20 -20 -20 -20 -20 -20 -20 -16 -20 -20 -20 -20 -20 7 26 37 -5 -18 16 22 12 -15 15 -5 -20 -20 -20
-20 -20 -20 -20 -20 -20 -20 4 8 8 -11 -19 -20 -20 -20 -20 -20 -20 -20 -20 -20 -20 -20 -20 3 37 28 -8 -20 -20 -10 -12 8 17 -9 -20 -20 -20
-20 -20 -20 -20 -20 -20 -6 -6 -4 6 -19 2 1 -19 -20 -20 -20 -20 -20 -20 -20 -20 -20 -20 -12 31 15 21 1 0 -18 -16 -13 -12 -4 -7 -20 -20
-20 -20 -20 -20 -20 -20 -13 8 9 11 11 -20 -17 -16 -13 -20 -20 -20 -20 -20 -20 -20 -20 -20 -20 -4 9 8 -20 -19 -20 -7 -18 -20 -20 -20 -20 -20
-20 -20 -20 -20 -20 -19 -20 -20 -20 -17 15 12 12 -10 -20 -20 -20 -20 -20 -20 -20 -20 -20 -20 -20 -20 -20 -20 -20 -20 -20 -14 -20 -20 -20 -20 -20 -20
-20 -20 -7 -14 -8 5 7 -7 -12 -20 -20 -20 -9 -12 -20 -20 -20 -20 -20 -20 -20 -20 -20 -20 -20 -20 -20 -20 -20 -20 -20 -20 -20 -20 -20 -20 -20 -20
-20 -20 -5 -4 -11 10 14 5 3 -20 -20 -20 -20 -20 -1 -9 11 -14 -15 1 -20 -20 -20 -20 -20 -20 -20 -20 -20 -20 -20 -20 -20 -20 -20 -20 -20 -20
-20 -20 -20 2 11 6 2 -20 -20 -20 -20 -20 -20 -20 -20 -20 -20 -20 -20 -4 -3 -20 -20 -20 -20 -20 -20 -20 -20 -20 -20 -20 -20 -20 -20 -20 -20 -20
-20 -16 -20 4 8 10 4 -8 11 4 -18 -20 -20 -20 -20 -20 -20 -20 -20 -20 -20 -20 -20 -20 -20 -20 -20 -20 -20 -20 -20 -20 -20 -20 -20 -20 -20 -20
-20 -20 -17 2 4 6 -10 12 7 -20 -20 -20 -20 -20 -20 -20 -20 -20 -20 -20 -20 -20 -20 -20 -20 -20 -20 -20 -20 -20 -20 -20 -20 -20 -20 -20 -20 -20
-20 -2 -7 -20 -19 -20 -12 -4 -20 -20 -20 -20 -20 -20 -20 -20 -20 -20 -20 -20 -20 -20 -20 -20 -20 -20 -20 -20 -20 -20 -20 -20 -20 -20 -20 -20 -20 -20
-20 -20 -20 -20 -20 -20 -20 -20 -20 -20 -20 -20 -20 -20 -20 -20 -20 -13 -20 -20 -20 -20 -20 -20 -20 -20 2 -17 -20 -20 -20 -20 -20 -20 -20 -20 -20 -20
-20 -20 -20 -20 -20 -20 -20 -20 -20 -20 -20 -20 -20 -20 -20 -17 -5 -1 -4 -16 -20 -20 -20 -20 -20 -20 -20 -18 -5 -20 -20 -20 -20 -20 -20 -20 -20 -20
-20 -20 -20 -20 -20 -20 -20 -20 -20 -20 -20 -20 -20 -20 -20 -20 -20 -20 -20 -20 -20 -20 -20 -20 -20 -11 -20 -20 -20 -20 -20 -20 -20 -20 -20 -20 -20 -20
-20 -20 -20 -20 -20 -20 -20 -20 -20 -20 -20 -20 -20 -20 -20 -20 -20 -20 -20 -20 -20 -20 -20 -20 -20 -9 -19 -20 -20 7 -20 -20 -20 -20 -20 -20 -20 -20
-20 -20 -20 -20 -20 -20 -20 -20 -20 -20 -20 -20 -20 -20 -20 -20 -20 -20 -20 -20 -20 -20 -20 -20 -20 -20 -20 -20 -20 -20 -20 -20 -20 -20 -20 -20 -20 -20
-20 -20 -20 -20 -20 -20 -20 -20 -20 -20 -20 -20 -20 -20 -20 -20 -20 -20 -20 -20 -20 -20 -20 -20 -20 -20 -20 -20 -20 -20 -20 -20 -20 -20 -20 -20 -20 -20
-20 -20 -20 -20 -20 -20 -20 -20 -20 -20 -20 -20 -20 -20 -20 -20 -20 -20 -20 -20 -20 -20 -20 -20 -20 -20 -20 -20 -20 -20 -20 -20 -20 -20 -20 -20 -20 -20
-20 -20 -20 -20 -20 -20 -20 -20 -20 -20 -20 -20 -20 -20 -20 -20 -20 -20 -20 -20 -20 -20 -20 -20 -20 -20 -20 -20 -20 -20 -20 -20 -20 -20 -20 -20 -20 -20

GFSNE_prec_radar_015.txt.gz
Reflectivity
-20 -20 -20 -20 -20 -20 -20 -20 -20 6 -19 -20 -20 -20 -20 -20 -20 -20 -20 -20 -20 -17 -20 -20 -20 -20 -20 4 21 -18 8 -20 -20 -20 -20 -18 -5 -20
-20 -20 -20 -20 -20 -20 -20 -20 -20 -20 -7 -20 -20 -20 -20 -20 -20 -20 -20 -20 -20 -20 -20 -20 -20 -20 -20 -20 2 23 -6 -11 -14 -20 -20 19 -6 -20
-20 -20 -20 -20 -20 -20 -20 -20 -20 -20 -20 -20 -20 -20 -20 -20 -20 -20 -20 0 -7 -20 -20 -20 -20 -20 -20 -20 -20 -19 -1 9 -9 0 -20 -20 -8 8
-20 -20 -20 -20 -20 -20 -20 -20 -20 -20 2 -18 -19 2 3 6 0 -20 4 -20 -1 -5 -20 -20 -20 -20 -20 -20 -20 -20 13 -7 -11 -20 19 -17 -20 -20
-20 -20 -20 -20 -20 -20 -20 -5 1 2 2 7 -2 -16 -20 4 8 -2 -13 17 -20 -20 -20 -20 -20 -20 -20 -20 -20 10 -19 17 -13 -20 -14 -10 -20 10
-20 -20 -20 -20 -20 -17 2 10 0 6 4 -3 4 2 3 -20 9 10 11 14 -20 -20 -20 -20 -20 -20 -20 -20 -20 16 18 -16 18 -3 -20 7 -18 -19
-20 -20 -20 -20 -20 -19 -2 -1 3 5 9 9 5 6 8 2 10 11 11 15 -20 -20 -20 -20 -20 -20 -20 -20 -19 15 21 -20 -20 25 24 1 -9 -12
-20 -20 -20 -20 -20 -20 -20 -3 -3 7 12 13 18 9 -19 5 4 15 13 5 11 -20 -20 -20 -20 -20 -20 -20 -20 2 35 -18 -11 -17 3 19 6 16
-20 -20 -20 -20 -20 -3 -10 -17 8 9 8 11 16 11 9 7 9 10 9 4 2 5 -20 -20 -20 -20 -20 -20 -20 -6 35 20 -8 9 -20 -20 0 9
-20 -20 -20 -12 -3 1 11 7 3 2 4 11 16 15 10 10 9 12 11 4 -10 -20 -20 -9 -20 -20 -20 -20 -20 -12 32 21 19 29 19 2 -6 -19
-20 -20 -20 -9 0 8 8 9 2 -4 2 -1 9 13 12 9 8 7 12 14 4 -12 -17 2 -20 -12 -20 -20 -20 -20 26 27 25 18 1 -20 -19 -20
-20 -20 -20 2 3 2 -2 6 3 8 4 5 4 7 4 7 0 6 4 9 17 12 -14 7 3 3 1 -20 -20 -20 -10 9 -20 0 -4 -19 -20 -20
-20 -20 -20 -1 -7 -20 -17 1 8 5 3 5 5 5 4 4 6 5 5 4 7 10 11 11 10 8 5 5 -20 -20 -20 -20 -20 -20 -20 -20 -20 -20
-20 -20 -18 -20 -20 -20 -20 -10 -20 -11 4 3 4 4 4 5 3 7 8 6 2 -12 2 3 9 4 1 -5 -20 -20 -20 -20 -20 -20 -20 -20 -20 -20
-20 -20 -20 -20 -20 -20 -20 -20 -20 -15 -1 1 -0 -1 -4 -3 -2 3 9 6 5 5 -20 -20 -18 -19 1 0 0 -2 -20 -20 -20 -20 -20 -20 -20 -20
-20 -20 -20 -20 -20 -20 -20 -20 -20 -20 -20 0 -4 -18 -6 1 8 15 11 11 8 4 -4 -0 2 3 7 2 -5 -12 -2 6 7 4 -16 -20 -20 -20
-20 -20 -20 -20 -20 -20 -20 -20 -20 -20 -20 -20 -5 -20 -20 -20 -7 3 8 12 10 10 14 5 3 7 6 9 8 3 4 2 -13 -10 -3 -1 -16 -2
-20 -20 -20 -20 -20 -20 -20 -20 -20 -20 -20 -20 -20 -20 -20 -9 -6 -8 -7 5 8 8 9 8 11 8 10 9 -4 17 14 6 -2 1 -4 2 6 7
-20 -20 -20 -20 -20 -20 -20 -20 -20 -20 -20 -20 -20 -20 -20 -20 0 -1 0 -2 -20 -3 -1 -1 3 12 17 19 -1 -19 12 10 2 4 3 -6 -20 7
-20 -20 -20 -20 -20 -20 -20 -20 -20 -20 -20 -20 -20 -20 -20 -20 -1 -1 -5 -5 -1 -20 -20 -20 -5 -12 2 6 13 3 -20 7 7 7 -14 -1 -1 2
-20 -20 -20 -20 -20 -20 -20 -20 -20 -20 -20 -20 -20 -20 -20 -20 -20 -20 -4 -20 -20 -20 -20 -20 -20 -20 -20 -12 3 3 -9 -20 -20 -2 -8 2 -8 -11
-20 -20 -20 -20 -20 -20 -20 -20 -20 -20 -20 -20 -20 -20 -20 -20 -20 -20 -20 -20 -20 -20 -20 -20 -20 -20 -2 7 4 -12 -3 -17 -20 -20 -20 -18 4 5
-20 -20 -20 -20 -20 -20 -20 -20 -20 -20 -20 -20 -20 -20 -20 -20 -20 -20 -20 -20 -20 -20 -20 -20 -20 -20 -20 -20 -20 1 -19 -16 1 5 6 -20 -20 -20

GFSNE_prec_radar_021.txt.gz
Reflectivity
15 9 1 -20 -19 -20 -15 -20 13 12 -13 -20 -20 -20 -20 -20 -20 -20 -20 -20 -2 -20 -20 -20 -20 -20 -20 -20 -20 -20 -20 -20 1 18 20 22 15 24
19 12 -20 -16 21 -19 -20 -20 -20 6 -8 -20 -20 -20 -20 -20 -20 -20 -20 -20 -20 -20 -20 -20 -20 -20 -20 -20 -20 -20 -20 -14 1 -5 26 22 10 14
8 -17 -20 -17 -18 -8 -20 -20 -20 -10 9 -20 -20 -20 -20 -20 -20 -20 -20 -20 -20 -20 -16 -20 -20 -20 -20 -20 -20 -20 -20 -20 12 15 -11 13 1 -16
-19 -20 14 -19 -19 -20 -20 -20 -20 -20 -20 -20 -20 -20 -20 -20 -20 -20 -20 -20 -20 -20 -13 12 -20 -20 -20 -20 -20 -20 -20 -20 1 -16 7 5 25 -17
-20 -19 -20 -20 -20 -20 -20 -20 -20 -20 -20 -20 -15 -11 -20 -20 -19 -20 -20 -20 -20 -15 -10 15 11 -9 -20 -20 -20 -20 -20 -20 1 -20 -20 -20 -20 -20
-20 -20 -20 -20 -20 -20 -20 -20 -20 -20 -20 -20 -7 -20 -13 -20 -10 11 14 -5 -7 -5 2 35 29 -12 -20 -20 -20 -20 -20 -20 -20 -6 -4 -18 8 10
-20 -20 -20 -20 -20 -20 -20 -20 -20 -16 -10 1 -2 6 1 -8 15 7 15 4 -20 -1 9 12 31 10 -17 -20 -20 -20 -20 -20 -20 -20 16 -20 -11 13
-20 -20 -20 -20 -20 -20 -20 -20 -20 -4 5 14 11 -11 -20 7 11 16 16 13 -20 -8 16 -4 25 14 -7 7 -16 -20 -20 -20 -20 -7 15 0 -13 -11
-20 -20 -20 -20 -20 -20 -20 -20 -20 -20 -20 -18 8 9 10 12 2 12 12 16 14 -2 3 9 -12 -1 -14 10 9 -20 -20 -20 -20 -20 12 18 -2 10
-20 -20 -20 -20 -20 -20 -20 -20 -20 -20 -20 -19 -17 -16 -9 -19 -12 -4 -6 2 -2 -20 -11 3 -20 -13 -20 -20 -20 -20 -20 -20 -17 -5 22 17 37 33
-20 -20 -20 -20 -20 -20 -20 -20 -20 -20 -20 -20 -20 -20 -20 -20 -20 11 -8 8 6 -17 13 17 -12 -10 -20 -20 -20 -20 -20 -20 7 23 32 11 27 36
-20 -20 -20 -20 -20 -20 -20 -20 -20 -20 -20 -20 -20 -20 -3 -15 -18 -15 6 14 13 6 -1 14 15 15 9 -19 -20 -20 -20 -20 8 28 24 19 -16 -16
-20 -20 -20 -20 -20 -20 -20 -20 -12 -20 -20 -1 8 -2 -6 11 15 16 12 13 17 6 -9 -10 11 16 -8 8 18 14 8 -12 -2 28 31 18 -2 28
-20 -18 -20 -20 -20 -20 -20 -20 -20 -20 -17 -1 9 8 6 5 5 8 -4 4 13 13 -14 -20 1 11 22 17 16 17 -10 11 -17 18 33 28 16 -3
-19 -19 -20 -20 -20 -20 -20 -20 -20 -20 -20 1 6 6 3 4 5 15 18 17 -14 6 -17 -20 0 -12 4 2 1 0 8 8 11 7 22 21 14 14
-16 2 -20 -20 -20 -20 -17 -20 -20 -20 -20 -18 -10 6 6 4 6 4 13 9 18 5 -20 -20 -20 -1 -0 -5 -11 -19 3 8 8 -20 8 13 12 9
-20 -20 -1 5 1 1 -1 -3 -5 -20 -20 -20 -3 4 4 3 2 -10 8 7 25 25 24 -1 -20 -20 -6 -10 16 -5 9 6 -4 19 7 8 -20 2
-20 -4 3 9 7 5 2 -0 -3 -5 -20 -20 -15 -3 2 4 4 7 5 4 9 5 9 23 17 -1 4 -8 -7 3 12 -8 -20 -6 -4 -5 9 10
-4 -1 7 7 7 3 -0 -4 -20 -20 -20 -2 -20 -1 -2 -3 -15 8 4 6 -3 -3 -10 4 7 27 25 8 3 -20 1 21 -0 4 3 -20 -11 -10
-1 0 3 5 5 1 -3 -3 -1 2 1 -18 -2 2 1 -3 1 -0 5 5 1 -2 -19 -8 7 -20 0 14 20 -13 -20 19 21 7 13 15 -7 -20
7 9 12 6 -8 1 1 2 4 1 1 -1 -0 0 3 3 -4 -6 0 0 -20 -0 -5 -7 -11 -20 -20 -15 8 4 -11 -20 -20 -4 24 16 10 -4
1 4 5 1 2 1 5 6 4 8 3 2 -1 2 0 2 3 -20 -3 -1 -3 -12 -20 -6 0 -2 1 -3 17 -3 -1 -20 -20 -20 -20 -20 -4 6
9 -0 7 2 10 -7 2 4 4 2 4 -1 0 -1 -20 -3 2 2 -20 -20 -16 -20 -20 -19 -20 11 12 -3 -12 14 -20 -20 -12 -20 -5 -20 -20 -20